Regional Weather Roundup
Issued by NWS Wakefield, VA

Home | Current Version | Previous Version | Graphics & Text | Print | Product List | Glossary On
Versions: 1 2 3 4 5 6 7 8 9 10 11 12 13 14 15 16 17 18 19 20 21 22 23 24 25 26 27
000
ASUS41 KAKQ 231010
RWRAKQ

REGIONAL WEATHER ROUNDUP
NATIONAL WEATHER SERVICE WAKEFIELD VA
600 AM EDT WED APR 23 2014

Note: "fair" indicates few or no clouds below 12,000 feet with no
significant weather and/or obstructions to visibility. * = Denotes
station may not report precipitation (e.g., rain,snow,etc.),
thunder or fog.

VAZ042-051-052>054-056-231100-
NORTHERN VIRGINIA

CITY           SKY/WX    TMP DP  RH WIND       PRES   REMARKS
WASH NATIONAL  PTCLDY    53  33  46 NW14      29.75R
DULLES         PTCLDY    45  33  63 W13       29.75R
FORT BELVOIR   CLEAR     51  33  50 W8        29.76R
QUANTICO       CLEAR     53  30  41 N13G23    29.78R
FREDERICKSBRG* CLEAR     54  33  45 N15G31    29.71S
STAFFORD*      CLEAR     52  34  49 N16G28    29.79R
WARRENTON      CLEAR     50  38  64 NW13G18   29.76R
CULPEPER*        N/A     52  30  43 N9        29.76S
MANASSAS*      CLEAR     48  36  61 NW14      29.76R
LEESBURG*      MOCLDY    46  37  71 NW8       29.76R
WINCHESTER     MOCLDY    48  32  53 NW8G25    29.77R
$$

VAZ048-049-060>072-079>083-231100-
CENTRAL AND SOUTH CENTRAL VIRGINIA...AND NORTH CENTRAL NORTH CAROLINA

CITY           SKY/WX    TMP DP  RH WIND       PRES   REMARKS
RICHMOND       PTCLDY    53  38  56 N8        29.72R
CHESTERFIELD*  NOT AVBL
HANOVER        CLEAR     51  38  60 CALM      29.74R
TAPPAHANNOCK*  CLEAR     52  32  46 CALM      29.71S
CHARLOTTSVILLE CLEAR     51  37  58 N5        29.74R
ORANGE*        CLEAR     50  36  57 NE3       29.76R
LOUISA*        CLEAR     48  37  66 CALM      29.72R
FARMVILLE*     CLEAR     52  46  82 N5        29.72R
SOUTH HILL*    PTCLDY    54  52  94 CALM      29.77R
ROANOKE RAPIDS MOSUNNY   46  41  81 N3        29.70R
RALEIGH        MOCLDY    56  50  80 CALM      29.73R
$$

VAZ088>098-231100-
SOUTHEAST VIRGINIA

CITY           SKY/WX    TMP DP  RH WIND       PRES   REMARKS
NORFOLK        CLEAR     57  46  66 N17G26    29.68R
VIRGINIA BEACH PTCLDY    57  47  69 N18G24    29.67R
NORFOLK NAVAL  MOCLDY    58  44  60 N17G26    29.70R
WEST POINT*    MOCLDY    56  37  50 NW5       29.72R
NEWPORT NEWS   MOCLDY    59  41  51 N10       29.70R
LANGLEY AFB    MOCLDY    57  43  59 NW12      29.69R
FORT EUSTIS    MOCLDY    57  44  61 N9G18     29.69R
WILLIAMSBURG*    N/A     57  41  54 N12G28    29.71R
FRANKLIN*      PTCLDY    57  52  82 N6        29.70R
WAKEFIELD      PTCLDY    57  44  62 N7        29.71R
$$

VAZ020-022-025-037-045-231100-
WESTERN AND SOUTHWEST VIRGINIA

CITY           SKY/WX    TMP DP  RH WIND       PRES   REMARKS
STAUNTON*      PTCLDY    47  31  54 NW7       29.79R
HOT SPRINGS VA PTCLDY    37  30  75 W15G25    29.80R
LYNCHBURG      CLEAR     55  30  38 W5        29.77R
DANVILLE       CLEAR     57  34  41 NW9       29.75R
MARTINSVILLE   CLEAR     52  33  48 N6        29.82R
ROANOKE        CLEAR     50  30  46 W8        29.81R
BLACKSBURG     CLEAR     46  36  66 W12G22    29.84R
DUBLIN*        CLEAR     46  32  57 NW12G18   29.84R
MARION*        CLEAR     45  30  56 W14G21    29.86S
HILLSVILLE*    CLEAR     46  25  42 NW12G23   29.84R
RICHLANDS*     SUNNY     46  32  60 NW9       29.90S
WISE*          CLEAR     41  28  60 NW5       29.94R
ABINGDON*      CLEAR     49  31  50 NW7       29.90R
$$

MDZ021>025-VAZ099-100-231100-
SOUTHERN MARYLAND AND THE DELMARVA PENINSULA

CITY           SKY/WX    TMP DP  RH WIND       PRES   REMARKS
PATUXENT RIVER PTCLDY    52  33  48 NW17      29.69S
BAY BRIDGE APT NOT AVBL
LEONARDTOWN    CLEAR     52  32  46 NW7       29.71S
DOVER          CLEAR     48  33  56 W10       29.63S
GEORGETOWN     PTCLDY    51  33  50 NW6       29.68R
EASTON         CLEAR     52  37  57 N16       29.72S
CAMBRIDGE      CLEAR     54  34  47 NW10G24   29.69R
SALISBURY      PTCLDY    52  36  54 NW10      29.68R
OCEAN CITY     CLOUDY    52  35  52 NW14      29.66R
WALLOPS ISLAND CLOUDY    56  38  50 N9G22     29.67R
ACCOMACK*      CLOUDY    55  37  50 N15G23    29.68R
$$

NCZ012>017-030>032-231100-
EASTERN NORTH CAROLINA

CITY           SKY/WX    TMP DP  RH WIND       PRES   REMARKS
ELIZABETH CITY CLEAR     60  50  69 N14       29.67R
AHOSKIE*       CLEAR     57  51  80 N5        29.70R
EDENTON*       CLEAR     59  55  85 N9        29.67R
CURRITUCK*     PTCLDY    59  47  63 N17       29.68R
KILL DEVIL HLS CLEAR     60  53  76 N9G16     29.65R
MANTEO         PTCLDY    62  55  79 N13G18    29.66R
CAPE HATTERAS  CLEAR     61  32  33 W12G17    29.64S
GOLDSBORO      CLEAR     60  58  95 W6        29.70R
WASHINGTON     CLEAR     61  56  83 NW5       29.68R
GREENVILLE     CLEAR     61  55  82 NW5       29.73R
NEW BERN       CLEAR     61  56  83 W6        29.69R
WILMINGTON     CLEAR     61  58  90 W7        29.72R
$$

VAZ048-231100-
ELSEWHERE

CITY           SKY/WX    TMP DP  RH WIND       PRES   REMARKS
HARRISBURG PA  MOCLDY    47  33  58 NW17G35   29.69R
BALTIMORE      PTCLDY    47  35  63 W9        29.72R
ANNAPOLIS      CLEAR     52  34  50 W14G22    29.72R
ANDREWS AFB    CLEAR     50  33  51 NW17G24   29.74R
WILMINGTON DE  CLEAR     49  33  54 NW17G28   29.66R
PHILADELPHIA   PTCLDY    50  31  48 W14       29.65S
WILDWOOD NJ*   MOCLDY    50  34  53 NW14G24   29.66S
ATLANTIC CITY  CLEAR     48  32  53 NW14      29.62R
HENDERSON NC   CLEAR     58  43  57 NW8       29.73R
GREENSBORO     PTCLDY    51  37  58 NW7       29.77R
ROCKY MOUNT    CLEAR     60  53  77 NW5       29.71R
FAYETTEVILLE   CLEAR     58  54  86 W6        29.73R
CHARLOTTE      CLEAR     55  53  93 NW3       29.79R
$$

VAZ100-231100-
MARINE

STATION/POSITION TIME  TEMP    WIND        PRES    WAVE   SWELL
                       AIR SEA DIR/SP/G            HT/PER HT/PER
                 (UTC) (F)     (DEG/KT/KT) (MB)    (FT/S) (FT/S)
44066 TX TWR #4  1000   49 45  280/ 17/ 19  999.2F   4/ 9   3/ 9
CAPE MAY NJ      1000   51 55  330/  8/ 18 1003.6S
LEWES DE         1000   52 52  320/ 22/ 26 1003.6S
15NM E FENWICK I 1000   51 47              1003.6R   4/11
OCEAN-CITY-INLET 1000   53 48  340/ 17/ 20 1003.7R
WACHAPREAGUE VA  1000   56 59  340/  8/ 17 1004.1R
THOMAS POINT MD  1000   52 54  300/ 27/ 31 1005.6R
GOOSES REEF MD   1000   54     340/ 17/ 21   N/A
COVE POINT MD    1000   54     350/ 19/ 21 1005.2S
SOLOMONS ISLAND  1000      56                N/A
BISHOPS HEAD MD  1000   53 58  340/ 11/ 16 1005.1R
PINEY POINT MD   1000          350/ 14/ 15   N/A
POTOMAC MD       1000   55     340/ 14/ 17 1004.9R
CAMBRIDGE MD     1000   54 57  320/ 15/ 20 1004.7S
LEWISETTA VA     1000   55 57  350/ 11/ 17 1005.5S
RAPPAHANNOCK LGT 1000          340/ 19/ 21 1005.3R
STINGRAY PT      1000   56     350/ 19/ 25 1005.2R
YORK RVR RNG VA  1000   58     360/ 24/ 26 1004.0R
YORKTOWN VA      1000   57 57  360/ 20/ 27 1005.0R
JAMESTOWN VA     1000   57     360/ 10/ 17   N/A
DOMINION TERM VA 1000   60      50/  2/  8 1004.9R
KIPTOPEKE VA     1000      55  360/ 18/ 23   N/A
CHES BAY BRIDGE  1000   57 54  340/ 22/ 26 1004.6R
CAPE HENRY VA    1000   56     350/ 19/ 23   N/A
CHESAPEAKE LGHT  0900   55     350/ 26/ 27 1003.8R
WILLOUBY STN VA  1000   58     360/ 18/ 22 1004.0R
S CRANEY ISL VA  1000          340/ 17/ 21 1004.8R
CAPE HENRY BUOY  1000      49                N/A     3/ 9   2/11
1ST LANDING BUOY 1000      48                N/A     3/ 9   2/ 9
64NM E OF VA BCH 1000   53 49  340/ 17/ 21 1002.7R   4/ 9   3/ 9
DUCK PIER NC     1000   56 48  350/ 18/ 20 1002.8S
44100 DUCK FRF   1000      50                N/A     3/10
44056 DUCK FRF   1000      49                N/A     3/ 9
OREGON INLET NC  1000   59 60  250/  4/  7 1003.5R
HATTERAS NC      1000   63 58  260/ 11/ 14 1003.8S
DIAMOND SHLS NC  1000   69 76  280/ 19/ 23 1003.2R   5/ 7   3/ 7
CAPE LOOKOUT NC  0900   62     250/ 11/ 14 1004.5R
FRYING PAN SHLS  1000   65 67  280/ 16/ 19 1006.3R   4/ 6   2/ 8
$$



USA.gov is the U.S. government's official web portal to all federal, state and local government web resources and services.